Regional Weather Roundup
Issued by NWS Little Rock, AR

Home | Current Version | Previous Version | Text Only | Print | Product List | Glossary Off
Versions: 1 2 3 4 5 6 7 8 9 10 11 12 13 14 15 16 17 18 19 20 21 22 23 24 25 26 27 28 29 30 31 32 33 34 35 36 37 38 39 40 41 42 43 44 45 46 47 48 49 50

000
ASUS44 KLZK 011705
RWRLZK

WEATHER ROUNDUP FOR ARKANSAS
NATIONAL WEATHER SERVICE LITTLE ROCK AR
1200 PM CDT WED JUL 01 2015

NOTE: "FAIR" INDICATES FEW OR NO CLOUDS BELOW 12,000 FEET WITH NO
SIGNIFICANT WEATHER AND/OR OBSTRUCTIONS TO VISIBILITY.

ARZ001-003-010-029-011800-
NORTHWEST ARKANSAS

CITY           SKY/WX    TMP DP  RH WIND       PRES   REMARKS
FAYETTEVILLE   CLOUDY    83  73  72 S10       29.98F HX  89
FORT SMITH     MOSUNNY   88  71  57 S9        29.95S HX  94
HARRISON       MOSUNNY   81  72  74 SE8       30.01F HX  85
BENTONVILLE    PTSUNNY   84  72  65 S5        29.98S HX  89
ROGERS         PTSUNNY   86  73  65 S12       29.98F HX  93
SILOAM SPGS    PTSUNNY   84  70  61 SW12      29.97F HX  88
HIGHFILL       PTSUNNY   85  74  69 SW10      29.97F HX  92
SPRINGDALE     MOSUNNY   84  73  70 S8        29.99F HX  91
$$

ARZ004-005-016-011800-
NORTH CENTRAL ARKANSAS

CITY           SKY/WX    TMP DP  RH WIND       PRES   REMARKS
BATESVILLE     CLOUDY    79  72  78 SE7       30.01F
FLIPPIN        CLOUDY    75  68  78 NE8       30.00S
MTN HOME       CLOUDY    73  68  84 VRB5      30.02S
$$

ARZ040-041-011800-
WEST CENTRAL ARKANSAS

CITY           SKY/WX    TMP DP  RH WIND       PRES   REMARKS
MENA           MOSUNNY   88  70  55 SW5G10    30.02F HX  92
MOUNT IDA      PTSUNNY   84  70  62 VRB6      30.00R HX  88
$$

ARZ009-017-025-026-028-011800-
NORTHEAST ARKANSAS

CITY           SKY/WX    TMP DP  RH WIND       PRES   REMARKS
JONESBORO      CLOUDY    80  66  62 CALM      30.01S
NEWPORT        CLOUDY    82  72  72 S5        30.02F HX  86
WALNUT RIDGE   CLOUDY    75  66  73 CALM      30.01R
BLYTHEVILLE    CLOUDY    79  69  71 N14       30.03R
NW BLYTHEVILLE CLOUDY    79  68  69 NW9       30.03R
$$

ARZ022-023-033-042-044-011800-
CENTRAL ARKANSAS

CITY           SKY/WX    TMP DP  RH WIND       PRES   REMARKS
LITTLE ROCK    CLOUDY    87  71  58 VRB7      30.01R HX  93
N LITTLE ROCK  CLOUDY    84  75  73 SW6       30.01R HX  92
JACKSONVILLE   CLOUDY    85  74  68 VRB5      30.01R HX  92
SEARCY         CLOUDY    83  74  74 CALM      30.02  HX  89
HOT SPRINGS    PTSUNNY   85  71  63 CALM      30.02S HX  90
RUSSELLVILLE   CLOUDY    85  73  67 CALM      29.99S HX  91
CLINTON        FAIR      84  75  74 E6        30.01F HX  92
$$

ARZ036-011800-
EAST ARKANSAS

CITY           SKY/WX    TMP DP  RH WIND       PRES   REMARKS
WEST MEMPHIS   CLOUDY    83  75  77 VRB3      30.01F HX  90
$$

ARZ050-053-066-070-073-011800-
SOUTHWEST ARKANSAS

CITY           SKY/WX    TMP DP  RH WIND       PRES   REMARKS
ARKADELPHIA    FAIR      89  74  61 SW9       30.02S HX  97
CAMDEN         SUNNY     90  70  51 MISG      30.03S HX  95
TEXARKANA      MOSUNNY   85  71  63 S14       30.04R HX  90
EL DORADO      MOSUNNY   85  71  63 SW6       30.06R HX  90
DE QUEEN       SUNNY     86  73  65 SW10      29.99F HX  93
$$

ARZ056-057-069-011800-
SOUTHEAST ARKANSAS

CITY           SKY/WX    TMP DP  RH WIND       PRES   REMARKS
PINE BLUFF     PTSUNNY   84  71  65 SW9       30.03S HX  89
STUTTGART      PTSUNNY   86  73  66 SW9       30.01S HX  93
MONTICELLO     MOSUNNY   86  73  65 SW9       30.04F HX  93

$$




USA.gov is the U.S. government's official web portal to all federal, state and local government web resources and services.